[[{"header":{"parameterUnit":"m.s-1","parameterCategory":1,"la1":30.2991,"la2":30.254,"lo1":-89.0895,"lo2":-89.0444,"dy":0.0017,"dx":0.0017,"nx":28,"ny":28,"refTime":"2025-03-27T09:00:00:Z","depth":0,"parameterNumber":2,"parameterNumberName":"U-component_of_WINDS"},"data":[0,0,0,0,0,0,0,0,0,0,0,0,0,0,0,0,0,0,0,0,0,0,0,0,0,0,0,0,0,0,0,0,0,0,0,0,0,0,0,0,0,0,0,0,0,0,0,0,0,0,0,0,0,0,0,0,0,0,-2.2566,-2.2566,0,-2.2552,-2.2552,-2.2552,-2.2459,-2.2457,-2.2455,-2.2453,-2.2441,-2.2443,-2.2445,0,0,0,0,0,0,0,0,0,0,0,0,0,-2.2516,-2.2518,-2.2566,-2.2566,-2.2566,-2.2552,-2.2552,-2.2552,-2.246,-2.2457,-2.2454,-2.2452,-2.2441,-2.2443,-2.2445,0,0,0,0,0,0,0,0,0,0,0,0,0,-2.2524,-2.2518,-2.2566,-2.2518,-2.2514,-2.2552,-2.2552,-2.2551,-2.246,-2.2457,-2.2454,-2.2451,-2.244,-2.2443,-2.2445,-2.2529,0,0,-2.2454,-2.2455,0,0,0,0,0,0,0,0,-2.2524,-2.2526,-2.2526,-2.2522,-2.2517,-2.2504,-2.253,-2.2544,-2.2461,-2.2481,-2.2453,-2.2449,-2.2465,-2.2466,-2.247,-2.2529,-2.2528,-2.2454,-2.2455,-2.2457,-2.2457,0,0,0,0,0,0,0,-2.2523,-2.2526,-2.2561,-2.2526,-2.252,-2.2498,-2.2496,-2.2532,-2.2492,-2.2479,-2.2472,-2.2472,-2.2462,-2.2468,-2.2469,-2.2528,-2.2454,-2.2456,-2.2458,-2.2459,-2.2655,-2.2658,0,0,0,0,0,0,-2.2529,-2.2526,-2.2561,-2.256,-2.2512,-2.2502,-2.2499,-2.2512,-2.2491,-2.2485,-2.2474,-2.2467,-2.2465,-2.2466,-2.2469,-2.2566,-2.2457,-2.2459,-2.2461,-2.2651,-2.2655,-2.2659,0,0,0,0,0,0,-2.2528,-2.2533,-2.2562,-2.2541,-2.2543,-2.2506,-2.2521,-2.2513,-2.2519,-2.2488,-2.2481,-2.2488,-2.2462,-2.2465,-2.2515,-2.2564,-2.246,-2.2463,-2.2647,-2.2652,-2.2657,-2.2762,0,0,0,0,0,0,-2.2527,-2.2533,-2.2564,-2.2543,-2.2545,-2.2608,-2.2524,-2.2515,-2.2523,-2.2514,-2.2499,-2.2493,-2.246,-2.2511,-2.2517,-2.2566,-2.2465,-2.2642,-2.2649,-2.2656,-2.2754,-2.277,-2.2784,0,0,0,0,0,-2.2526,-2.2595,-2.2567,-2.2571,-2.2583,-2.2611,-2.2612,-2.2572,-2.2528,-2.2559,-2.2539,-2.2493,-2.2557,-2.2517,-2.2523,-2.2574,-2.2639,-2.2647,-2.2655,-2.2747,-2.2767,-2.2784,0,0,0,0,0,0,-2.2625,-2.2591,-2.2559,-2.2623,-2.2621,-2.2595,-2.2634,-2.2594,-2.2605,-2.2596,-2.2546,-2.2543,-2.2601,-2.2592,-2.2547,-2.2654,-2.259,-2.26,-2.2658,-2.2677,-2.2692,-2.2694,-2.2467,0,0,0,0,0,-2.2654,-2.2679,-2.2648,-2.2708,-2.2708,-2.2671,-2.2682,-2.2651,-2.2646,-2.2645,-2.2629,-2.2627,-2.2646,-2.2661,-2.2677,-2.2751,-2.2747,-2.2789,-2.2804,-2.2817,-2.2826,-2.2866,-2.2884,-2.2686,-2.2686,-2.2686,0,0,-2.2716,-2.27,-2.2719,-2.2728,-2.2722,-2.2749,-2.2671,-2.2703,-2.2724,-2.265,-2.2697,-2.2684,-2.2679,-2.2742,-2.2768,-2.2736,-2.288,-2.2827,-2.2837,-2.284,-2.2876,-2.2895,-2.2911,-2.2691,-2.269,-2.2689,0,0,-2.2841,-2.2831,-2.288,-2.2875,-2.2867,-2.2841,-2.2853,-2.2833,-2.2822,-2.2867,-2.2813,-2.2836,-2.2871,-2.287,-2.2873,-2.2997,-2.2956,-2.3004,-2.3084,-2.3123,-2.3138,-2.3152,-2.3197,-2.3214,-2.3013,-2.3013,-2.3013,0,-2.2919,-2.2957,-2.2911,-2.2946,-2.2952,-2.2885,-2.2935,-2.2932,-2.2931,-2.2937,-2.2899,-2.2941,-2.2933,-2.2994,-2.3025,-2.3029,-2.3042,-2.3006,-2.3139,-2.3153,-2.3165,-2.3208,-2.3225,-2.3019,-2.3018,-2.3018,-2.3017,0,-2.3054,-2.3081,-2.3121,-2.312,-2.313,-2.3173,-2.3133,-2.3149,-2.3117,-2.3096,-2.3143,-2.313,-2.3142,-2.3154,-2.3124,-2.3212,-2.3192,-2.3148,-2.3084,-2.319,-2.323,-2.3246,-2.3028,-2.3026,-2.3024,-2.3022,0,0,-2.3244,-2.3214,-2.323,-2.3229,-2.3214,-2.3235,-2.3274,-2.3285,-2.33,-2.33,-2.3333,-2.3364,-2.3322,-2.3327,-2.3295,-2.3329,-2.3429,-2.3281,-2.328,-2.331,-2.3527,-2.3562,-2.3581,-2.3401,-2.3403,-2.3406,-2.3528,0,-2.3366,-2.3431,-2.339,-2.3462,-2.3487,-2.3423,-2.3457,-2.3453,-2.3434,-2.3453,-2.3432,-2.3455,-2.3398,-2.34,-2.343,-2.3411,-2.3472,-2.3401,-2.3432,-2.3434,-2.3438,-2.3602,-2.3639,-2.3755,-2.3543,-2.3545,-2.3547,0,-2.3518,-2.3523,-2.3598,-2.3577,-2.3586,-2.3618,-2.3625,-2.3643,-2.3636,-2.362,-2.3625,-2.3584,-2.3622,-2.3557,-2.3609,-2.3562,-2.3572,-2.3564,-2.3567,-2.3571,-2.3499,-2.3612,-2.3791,-2.3809,-2.3571,-2.3569,-2.3567,0,-2.3651,-2.3677,-2.3725,-2.3726,-2.3702,-2.3726,-2.3718,-2.3707,-2.3717,-2.3722,-2.3728,-2.3739,-2.3745,-2.3755,-2.3719,-2.3674,-2.3777,-2.3708,-2.3766,-2.3767,-2.3792,-2.3792,-2.3978,-2.3795,-2.3795,-2.3795,-2.3794,0,-2.3793,-2.3842,-2.3785,-2.3815,-2.3868,-2.3819,-2.3873,-2.3857,-2.3848,-2.3875,-2.3819,-2.3846,-2.3795,-2.3816,-2.3788,-2.3836,-2.3839,-2.3828,-2.3821,-2.3835,-2.3836,-2.3842,-2.3834,-2.3799,-2.3798,-2.3797,-2.3797,0,-2.3953,-2.3916,-2.3965,-2.3938,-2.3932,-2.3972,-2.395,-2.3977,-2.3953,-2.3987,-2.3992,-2.3956,-2.3978,-2.3942,-2.396,-2.3941,-2.4009,-2.3988,-2.4011,-2.4006,-2.4066,-2.4062,-2.4265,-2.429,-2.409,-2.4092,-2.4093,0,-2.4047,-2.4083,-2.4059,-2.4072,-2.4066,-2.4088,-2.4097,-2.405,-2.4062,-2.4055,-2.4084,-2.4101,-2.4112,-2.415,-2.4126,-2.414,-2.412,-2.419,-2.4122,-2.4135,-2.4123,-2.4123,-2.4127,-2.4205,-2.4207,-2.4209,-2.4211,0,-2.4218,-2.4198,-2.4212,-2.422,-2.4232,-2.4236,-2.4236,-2.425,-2.4201,-2.4216,-2.4238,-2.4246,-2.4264,-2.4282,-2.4289,-2.4281,-2.4239,-2.4232,-2.4246,-2.4262,-2.4275,-2.4271,-2.4052,-2.4228,-2.4226,-2.4225,-2.4224,-2.4224,-2.4349,-2.4378,-2.4366,-2.4383,-2.4378,-2.4379,-2.4404,-2.4382,-2.4398,-2.4408,-2.4379,-2.4408,-2.4399,-2.4404,-2.4401,-2.4423,-2.4392,-2.4413,-2.4418,-2.4425,-2.4435,-2.427,-2.4424,-2.4423,-2.4423,-2.4422,-2.4422,0,-2.452,-2.4508,-2.4524,-2.4526,-2.454,-2.4495,-2.4493,-2.4508,-2.4534,-2.4528,-2.454,-2.4565,-2.4582,-2.4558,-2.4571,-2.4593,-2.4574,-2.4599,-2.4598,-2.4597,-2.4461,-2.4448,-2.4614,-2.4614,-2.4614,-2.4614,-2.4614,-2.4614,-2.461,-2.4657,-2.4635,-2.4679,-2.4666,-2.4693,-2.4696,-2.4697,-2.4692,-2.4722,-2.4735,-2.4719,-2.4707,-2.4718,-2.4732,-2.4725,-2.4733,-2.4765,-2.4751,-2.4625,-2.4607,-2.4589,-2.4576,-2.4767,-2.4767,-2.4885,-2.4887,-2.4887]},{"header":{"parameterUnit":"m.s-1","parameterCategory":1,"la1":30.2991,"la2":30.254,"lo1":-89.0895,"lo2":-89.0444,"dy":0.0017,"dx":0.0017,"nx":28,"ny":28,"refTime":"2025-03-27T09:00:00:Z","depth":0,"parameterNumber":3,"parameterNumberName":"V-component_of_WINDS"},"data":[0,0,0,0,0,0,0,0,0,0,0,0,0,0,0,0,0,0,0,0,0,0,0,0,0,0,0,0,0,0,0,0,0,0,0,0,0,0,0,0,0,0,0,0,0,0,0,0,0,0,0,0,0,0,0,0,0,0,-1.5182,-1.5183,0,-1.5236,-1.5237,-1.5237,-1.5263,-1.5263,-1.5263,-1.5263,-1.5316,-1.5317,-1.5318,0,0,0,0,0,0,0,0,0,0,0,0,0,-1.5098,-1.5099,-1.5182,-1.5183,-1.5184,-1.5236,-1.5237,-1.5238,-1.5263,-1.5263,-1.5263,-1.5263,-1.5315,-1.5317,-1.5318,0,0,0,0,0,0,0,0,0,0,0,0,0,-1.5141,-1.51,-1.5182,-1.5203,-1.5205,-1.5236,-1.5237,-1.5238,-1.5263,-1.5263,-1.5263,-1.5263,-1.5314,-1.5317,-1.5319,-1.5333,0,0,-1.5325,-1.5326,0,0,0,0,0,0,0,0,-1.5139,-1.5144,-1.5199,-1.5201,-1.5204,-1.5243,-1.5227,-1.527,-1.5263,-1.5241,-1.5263,-1.5262,-1.5291,-1.5295,-1.5305,-1.5335,-1.5338,-1.5325,-1.5327,-1.5328,-1.5328,0,0,0,0,0,0,0,-1.5136,-1.5142,-1.5204,-1.52,-1.5203,-1.5208,-1.5214,-1.5235,-1.5265,-1.5243,-1.5245,-1.5251,-1.5293,-1.5303,-1.5307,-1.5338,-1.5325,-1.5327,-1.5329,-1.533,-1.5382,-1.5382,0,0,0,0,0,0,-1.513,-1.514,-1.5202,-1.5205,-1.5171,-1.5209,-1.5216,-1.523,-1.5265,-1.5271,-1.5251,-1.5252,-1.53,-1.5304,-1.5309,-1.5327,-1.5328,-1.533,-1.5331,-1.5382,-1.5382,-1.5382,0,0,0,0,0,0,-1.5128,-1.5135,-1.52,-1.5173,-1.5182,-1.5211,-1.5226,-1.5231,-1.5242,-1.5271,-1.5277,-1.5256,-1.53,-1.5306,-1.5327,-1.5329,-1.5331,-1.5333,-1.5381,-1.5382,-1.5382,-1.5364,0,0,0,0,0,0,-1.5125,-1.5134,-1.5141,-1.5173,-1.5183,-1.5218,-1.5227,-1.5232,-1.5246,-1.5248,-1.5278,-1.5283,-1.53,-1.5323,-1.5329,-1.5332,-1.5334,-1.5381,-1.5381,-1.5382,-1.5365,-1.5364,-1.5363,0,0,0,0,0,-1.5122,-1.5134,-1.5141,-1.5149,-1.5192,-1.5218,-1.5223,-1.5243,-1.5246,-1.5252,-1.5271,-1.5282,-1.5328,-1.5325,-1.5332,-1.5336,-1.5381,-1.5381,-1.5382,-1.5365,-1.5364,-1.5363,0,0,0,0,0,0,-1.5101,-1.5138,-1.5147,-1.5169,-1.519,-1.5222,-1.5231,-1.5242,-1.5262,-1.5263,-1.5286,-1.5292,-1.5311,-1.5326,-1.5322,-1.5351,-1.5356,-1.5357,-1.5341,-1.534,-1.5339,-1.5335,-1.5336,0,0,0,0,0,-1.5099,-1.5117,-1.5149,-1.5165,-1.5175,-1.5201,-1.5213,-1.5227,-1.5249,-1.5258,-1.5278,-1.5298,-1.5317,-1.533,-1.5349,-1.5367,-1.5373,-1.5373,-1.5372,-1.5371,-1.5372,-1.5382,-1.5382,-1.5382,-1.5382,-1.5382,0,0,-1.5094,-1.5117,-1.5128,-1.5161,-1.5179,-1.5197,-1.5208,-1.5227,-1.524,-1.526,-1.5282,-1.5297,-1.5321,-1.534,-1.535,-1.5353,-1.5373,-1.5371,-1.5371,-1.5372,-1.5382,-1.5382,-1.5382,-1.5383,-1.5382,-1.5382,0,0,-1.5096,-1.5115,-1.5131,-1.5148,-1.5175,-1.5192,-1.5196,-1.5226,-1.5237,-1.5258,-1.5274,-1.5289,-1.5322,-1.5338,-1.5351,-1.5357,-1.5367,-1.5362,-1.5358,-1.5367,-1.5367,-1.5367,-1.5369,-1.5369,-1.5363,-1.5363,-1.5363,0,-1.5087,-1.5116,-1.5137,-1.5155,-1.5169,-1.5188,-1.5203,-1.5219,-1.5251,-1.5259,-1.5262,-1.5303,-1.5321,-1.5344,-1.5345,-1.5355,-1.5359,-1.5359,-1.5365,-1.5366,-1.5366,-1.5368,-1.5369,-1.5362,-1.5362,-1.5362,-1.5362,0,-1.5103,-1.5122,-1.5131,-1.5162,-1.5177,-1.5193,-1.5216,-1.5228,-1.524,-1.5256,-1.5277,-1.5299,-1.5323,-1.5329,-1.5341,-1.5353,-1.5354,-1.5361,-1.5366,-1.5365,-1.5367,-1.5368,-1.5361,-1.5361,-1.5362,-1.5362,0,0,-1.5093,-1.5135,-1.5138,-1.5151,-1.5182,-1.5197,-1.5213,-1.5237,-1.5246,-1.5267,-1.5281,-1.5307,-1.5313,-1.5328,-1.5341,-1.5349,-1.5352,-1.5355,-1.5356,-1.5353,-1.5366,-1.5361,-1.5362,-1.5359,-1.5359,-1.5359,-1.5364,0,-1.5098,-1.513,-1.515,-1.5173,-1.519,-1.5208,-1.5223,-1.5242,-1.5257,-1.5273,-1.529,-1.5308,-1.5315,-1.5324,-1.5332,-1.535,-1.5355,-1.535,-1.5371,-1.5372,-1.5365,-1.5363,-1.5358,-1.5362,-1.5365,-1.5365,-1.5366,0,-1.511,-1.513,-1.5155,-1.5183,-1.5191,-1.5204,-1.5226,-1.5242,-1.5264,-1.5274,-1.5289,-1.5303,-1.532,-1.5323,-1.5346,-1.5342,-1.5352,-1.5362,-1.5362,-1.5365,-1.5369,-1.5366,-1.5363,-1.5364,-1.5367,-1.5367,-1.5367,0,-1.5099,-1.5133,-1.5153,-1.5164,-1.5197,-1.5205,-1.5219,-1.5241,-1.5253,-1.5273,-1.5281,-1.5302,-1.5313,-1.5328,-1.5346,-1.5347,-1.5367,-1.5372,-1.5376,-1.5375,-1.5379,-1.5379,-1.5378,-1.5386,-1.5386,-1.5386,-1.5385,0,-1.5104,-1.5118,-1.5148,-1.516,-1.5177,-1.5198,-1.5213,-1.5229,-1.5248,-1.5262,-1.5278,-1.5291,-1.5315,-1.533,-1.5344,-1.5361,-1.5366,-1.5374,-1.5377,-1.5373,-1.5371,-1.5379,-1.538,-1.5386,-1.5386,-1.5386,-1.5386,0,-1.5095,-1.5116,-1.5139,-1.5168,-1.5175,-1.5186,-1.521,-1.5222,-1.5237,-1.5255,-1.5261,-1.5285,-1.5304,-1.5323,-1.5349,-1.5358,-1.5374,-1.5379,-1.5367,-1.5369,-1.5371,-1.537,-1.5375,-1.5377,-1.5383,-1.5383,-1.5383,0,-1.5097,-1.5109,-1.5139,-1.515,-1.5164,-1.5181,-1.5194,-1.5215,-1.5227,-1.5253,-1.5261,-1.5281,-1.5298,-1.5327,-1.5346,-1.5366,-1.5371,-1.5372,-1.5374,-1.5368,-1.5371,-1.537,-1.5371,-1.5371,-1.5371,-1.5371,-1.537,0,-1.5097,-1.5106,-1.5125,-1.5147,-1.5162,-1.518,-1.5198,-1.5206,-1.523,-1.5243,-1.5263,-1.5276,-1.5302,-1.5321,-1.5343,-1.5356,-1.5367,-1.5369,-1.5371,-1.5366,-1.5358,-1.5362,-1.5364,-1.5369,-1.5369,-1.5369,-1.537,-1.537,-1.5094,-1.5104,-1.5127,-1.5147,-1.5163,-1.518,-1.5192,-1.5209,-1.5226,-1.5249,-1.526,-1.5279,-1.5299,-1.5329,-1.5342,-1.5357,-1.536,-1.5363,-1.5363,-1.5364,-1.5362,-1.5356,-1.5361,-1.5361,-1.5361,-1.5361,-1.5361,0,-1.5094,-1.511,-1.5128,-1.5153,-1.5168,-1.5177,-1.5198,-1.521,-1.5227,-1.5245,-1.5262,-1.5284,-1.5302,-1.5323,-1.5342,-1.535,-1.5355,-1.5354,-1.5354,-1.5357,-1.5359,-1.5355,-1.535,-1.535,-1.535,-1.535,-1.535,-1.535,-1.5096,-1.5115,-1.5127,-1.5154,-1.5169,-1.5188,-1.5199,-1.5214,-1.5229,-1.5253,-1.5269,-1.5282,-1.5301,-1.5322,-1.5339,-1.5344,-1.535,-1.5348,-1.5355,-1.5356,-1.5357,-1.5358,-1.5354,-1.5349,-1.5349,-1.5352,-1.5352,-1.5352]}]]